Location: Central Falls
(41.8900°N, 71.3929°W)
Time: 15:58:02
(UTC+00:00)

Vanguard 1 - Pass Details

Date: 06 December 2023
Orbit: 653 x 3826 km, 34.3° (Epoch: 24 February)

Event Time Altitude Azimuth Distance (km) Brightness Sun altitude
Rises 04:16:30 0° 283° (WNW) 7,501 14.7 -70.1°
Reaches altitude 10° 04:21:40 10° 277° (W) 6,708 14.3 -70.3°
Enters shadow 04:27:23 22° 269° (W) 5,905 13.9 -70.5°
Maximum altitude 04:42:16 43° 216° (SW) 4,620 - -70.5°
Drops below altitude 10° 05:00:03 10° 153° (SSE) 5,808 - -69.9°
Sets 05:04:11 0° 146° (SE) 6,458 - -69.7°
